Tracking 30922 objects as of 2-Jul-2025
HD Live streaming from Space Station
objects crossing your sky now

STARLINK-31100

Track STARLINK-31100 now!
10-day predictions
STARLINK-31100 is classified as:


NORAD ID: 58714
Int'l Code: 2024-002K
Perigee: 481.6 km
Apogee: 483.1 km
Inclination: 53.2 °
Period: 94.1 minutes
Semi major axis: 6853 km
RCS: Unknown
Launch date: January 3, 2024
Source: United States (US)
Launch site: AIR FORCE WESTERN TEST RANGE (AFWTR)
Your satellite tracking list
Your tracking list is empty




NASA's NSSDC Master Catalog

Two Line Element Set (TLE):
1 58714U 24002K   25182.60219649 -.00002794  00000-0 -82235-4 0  9996
2 58714  53.1606 316.1468 0001105  84.5975 275.5152 15.30199426 83572
Source of the keplerian elements: AFSPC